EW5466 Weather Reports


time (UTC)temp
F
wind
direction
speed
knots
gust
knots
rain 1hr
in
rain 24hr
in
rain mn
in
humidity
%
barometer
mb
20260506033703 46 132 5.2 6.1 0.00 0.01 0.01 82 1007.5
20260506033157 46 137 4.3 6.1 0.00 0.01 0.01 82 1007.5
20260506032646 46 127 4.3 6.1 0.00 0.01 0.01 82 1007.4
20260506032145 45 121 4.3 6.1 0.00 0.01 0.01 82 1007.4
20260506031855 46 125 3.5 5.2 0.00 0.01 0.01 81 1007.4
20260506031128 46 133 3.5 5.2 0.00 0.01 0.01 81 1007.4
20260506030628 46 131 3.5 6.1 0.00 0.01 0.01 81 1007.4
20260506030120 46 115 4.3 6.1 0.00 0.01 0.01 81 1007.4
20260506025615 46 126 4.3 6.1 0.00 0.01 0.01 81 1007.4
20260506025109 46 121 3.5 6.1 0.00 0.01 0.01 81 1007.4
20260506024559 46 123 3.5 6.1 0.00 0.01 0.01 81 1007.4
20260506024053 45 124 4.3 5.2 0.00 0.01 0.01 81 1007.4
20260506023551 45 128 5.2 7.0 0.00 0.01 0.01 82 1007.4
20260506023045 45 129 5.2 7.0 0.00 0.01 0.01 81 1007.5
20260506022539 45 132 5.2 7.0 0.00 0.01 0.01 82 1007.5
20260506022033 45 135 5.2 7.0 0.00 0.01 0.01 82 1007.5
20260506021522 46 143 5.2 7.0 0.00 0.01 0.01 81 1007.5
20260506021017 46 134 5.2 7.0 0.00 0.01 0.01 81 1007.5
20260506020511 46 131 5.2 6.1 0.00 0.01 0.01 81 1007.5
20260506020222 46 127 6.1 7.8 0.00 0.01 0.01 81 1007.4
20260506015503 46 124 6.1 7.8 0.00 0.01 0.01 81 1007.4
20260506014959 46 111 6.1 7.8 0.00 0.01 0.01 80 1007.4
20260506014447 46 111 5.2 7.0 0.00 0.01 0.01 81 1007.5
20260506013946 46 119 5.2 6.1 0.00 0.01 0.01 80 1007.5
20260506013439 45 128 5.2 7.0 0.00 0.01 0.01 81 1007.5
20260506012928 46 127 5.2 7.0 0.00 0.01 0.01 81 1007.1
20260506012427 46 125 5.2 6.1 0.00 0.01 0.01 80 1007.1
20260506011918 46 113 4.3 6.1 0.00 0.01 0.01 80 1007.1
20260506011416 46 122 4.3 5.2 0.00 0.01 0.01 80 1007.2
20260506010904 46 128 4.3 5.2 0.00 0.01 0.01 80 1007.2
20260506010403 46 125 3.5 5.2 0.00 0.01 0.01 80 1007.2
20260506005856 46 113 4.3 5.2 0.00 0.01 0.01 79 1007.0
20260506005347 46 113 4.3 5.2 0.00 0.01 0.01 79 1007.0
20260506004841 46 115 4.3 6.1 0.00 0.01 0.01 78 1007.0
20260506004336 46 128 4.3 6.1 0.00 0.01 0.01 78 1007.0
20260506003825 46 138 4.3 6.1 0.00 0.01 0.01 78 1007.0
20260506003323 47 127 5.2 6.1 0.00 0.01 0.01 78 1007.0
20260506002817 47 134 5.2 6.1 0.00 0.01 0.01 78 1007.0
20260506002307 47 129 4.3 6.1 0.00 0.01 0.01 78 1007.0
20260506002040 47 134 4.3 5.2 0.00 0.01 0.01 78 1007.0
20260506001255 47 139 3.5 5.2 0.00 0.01 0.01 77 1007.0
20260506001019 47 156 4.3 6.1 0.00 0.01 0.01 77 1007.0
20260506000247 47 163 4.3 6.1 0.00 0.01 0.01 77 1007.0
20260506000000 47 165 4.3 6.1 0.00 0.01 0.01 76 1007.0
20260505235451 48 152 5.2 7.0 0.00 0.01 0.01 76 1007.0
20260505234724 48 156 5.2 7.0 0.00 0.01 0.01 76 1007.0
20260505234440 48 159 5.2 7.0 0.00 0.01 0.01 75 1006.9
20260505233713 48 159 4.3 6.1 0.00 0.01 0.01 75 1006.9
20260505233212 49 156 4.3 6.1 0.00 0.01 0.01 74 1006.9
20260505232925 49 145 4.3 6.1 0.00 0.01 0.01 74 1006.5
20260505232422 49 145 5.2 7.0 0.00 0.01 0.01 74 1006.5
20260505231653 49 148 5.2 7.0 0.00 0.01 0.01 73 1006.5
20260505231143 49 162 3.5 6.1 0.00 0.01 0.01 73 1006.7
20260505230642 49 167 3.5 4.3 0.00 0.01 0.01 73 1006.7
20260505230130 49 176 3.5 5.2 0.00 0.01 0.01 72 1006.8
20260505225836 49 150 4.3 6.1 0.00 0.01 0.01 72 1006.8
20260505225111 50 142 4.3 6.1 0.00 0.01 0.01 71 1006.8
20260505224829 50 153 4.3 5.2 0.00 0.01 0.01 72 1006.9
20260505224055 50 155 3.5 5.2 0.00 0.01 0.01 70 1006.9
20260505223554 50 168 1.7 5.2 0.00 0.01 0.01 71 1006.9
20260505223043 50 148 2.6 4.3 0.00 0.01 0.01 69 1007.0
20260505222540 50 205 2.6 4.3 0.00 0.01 0.01 70 1007.0
20260505222035 50 158 3.5 5.2 0.00 0.01 0.01 69 1007.0
20260505221529 50 205 3.5 6.1 0.00 0.01 0.01 68 1007.0
20260505221023 50 168 2.6 6.1 0.00 0.01 0.01 70 1007.0
20260505220517 50 164 2.6 5.2 0.00 0.01 0.01 69 1007.0
20260505220011 50 173 3.5 5.2 0.00 0.01 0.01 71 1006.9
20260505215501 50 161 3.5 5.2 0.00 0.01 0.01 69 1006.9
20260505214959 50 142 3.5 5.2 0.00 0.01 0.01 69 1006.9
20260505214453 50 119 3.5 6.1 0.00 0.01 0.01 68 1007.0
20260505213944 50 130 3.5 5.2 0.00 0.01 0.01 67 1007.0
20260505213710 50 161 2.6 4.3 0.00 0.01 0.01 67 1007.0
20260505212931 51 148 2.6 4.3 0.00 0.01 0.01 66 1007.0
20260505212429 51 165 3.5 5.2 0.00 0.01 0.01 67 1007.0
20260505211919 51 205 3.5 5.2 0.00 0.01 0.01 65 1007.0
20260505211639 50 229 2.6 6.1 0.00 0.01 0.01 66 1006.9
20260505210911 50 179 3.5 6.1 0.00 0.01 0.01 64 1006.9
20260505210400 50 234 3.5 5.2 0.00 0.01 0.01 65 1006.9
20260505205900 50 199 3.5 6.1 0.00 0.01 0.01 66 1007.0
20260505205353 50 221 4.3 6.1 0.00 0.01 0.01 67 1007.0
20260505204847 50 246 4.3 6.1 0.00 0.01 0.01 65 1007.0
20260505204337 50 240 3.5 6.1 0.00 0.01 0.01 65 1007.0
20260505203831 49 239 2.6 5.2 0.00 0.01 0.01 66 1007.0
20260505203324 49 215 3.5 5.2 0.00 0.01 0.01 62 1007.0
20260505202823 49 231 3.5 5.2 0.00 0.01 0.01 64 1006.9
20260505202317 49 190 3.5 5.2 0.00 0.01 0.01 64 1006.9
20260505201811 49 215 1.7 5.2 0.00 0.01 0.01 64 1006.9
20260505201305 49 215 1.7 4.3 0.00 0.01 0.01 67 1007.0
20260505200754 48 316 1.7 3.5 0.00 0.01 0.01 65 1007.0
20260505200249 48 229 2.6 4.3 0.00 0.01 0.01 64 1007.0
20260505195742 48 255 2.6 5.2 0.00 0.01 0.01 66 1006.9
20260505195241 48 308 2.6 5.2 0.00 0.01 0.01 65 1006.9
20260505194735 47 290 1.7 5.2 0.00 0.01 0.01 65 1006.9
20260505194229 47 242 2.6 6.1 0.00 0.01 0.01 66 1006.8
20260505193719 47 289 3.5 7.0 0.00 0.01 0.01 66 1006.8
20260505193213 47 313 4.3 7.0 0.00 0.01 0.01 69 1006.8
20260505192711 47 308 5.2 9.6 0.00 0.01 0.01 68 1006.7
20260505192210 48 339 4.3 9.6 0.00 0.01 0.01 68 1006.7
20260505192148 48 319 4.3 7.0 0.00 0.01 0.01 69 1006.7
20260505191209 48 331 6.1 8.7 0.00 0.01 0.01 69 1006.4
20260505190930 48 314 7.0 8.7 0.00 0.01 0.01 69 1006.4
20260505190207 48 290 6.1 9.6 0.00 0.01 0.01 67 1006.4
20260505185706 48 302 7.0 9.6 0.00 0.01 0.01 70 1006.5
20260505185208 48 310 7.0 9.6 0.00 0.01 0.01 70 1006.5
20260505184706 48 315 7.8 11.3 0.00 0.01 0.01 70 1006.5
20260505184206 48 317 7.8 11.3 0.00 0.01 0.01 69 1006.5
20260505183708 48 327 7.0 10.4 0.00 0.01 0.01 70 1006.5
20260505183207 48 316 7.0 10.4 0.00 0.01 0.01 69 1006.5
20260505182707 49 310 5.2 9.6 0.00 0.01 0.01 68 1006.0
20260505182207 49 341 6.1 9.6 0.00 0.01 0.01 68 1006.0
20260505181707 49 313 6.1 9.6 0.00 0.01 0.01 68 1006.0
20260505181207 49 313 4.3 8.7 0.00 0.01 0.01 68 1005.9
20260505180707 49 340 3.5 7.8 0.00 0.01 0.01 70 1005.9
20260505180205 49 0 5.2 7.8 0.00 0.01 0.01 69 1005.9
20260505175659 48 271 5.2 7.8 0.00 0.01 0.01 71 1005.8
20260505175159 48 259 5.2 7.8 0.00 0.01 0.01 72 1005.8
20260505174657 48 304 5.2 7.8 0.00 0.01 0.01 71 1005.8
20260505174427 47 311 5.2 8.7 0.01 0.01 0.01 70 1005.6
20260505173657 47 260 5.2 8.7 0.01 0.01 0.01 74 1005.6
20260505173157 47 314 7.0 10.4 0.01 0.01 0.01 72 1005.6
20260505172657 47 291 7.8 10.4 0.01 0.01 0.01 72 1005.5
20260505172155 47 321 6.1 9.6 0.01 0.01 0.01 73 1005.5
20260505171655 47 317 4.3 8.7 0.01 0.01 0.01 72 1005.5
20260505171155 46 280 5.2 9.6 0.01 0.01 0.01 73 1005.5
20260505170655 46 253 6.1 9.6 0.01 0.01 0.01 73 1005.5
20260505170155 46 279 7.0 9.6 0.01 0.01 0.01 73 1005.5
20260505165655 46 300 7.8 10.4 0.01 0.01 0.01 73 1005.3
20260505165155 46 323 7.8 11.3 0.01 0.01 0.01 75 1005.3
20260505164655 45 309 9.6 15.6 0.01 0.01 0.01 76 1005.3
20260505164155 46 285 10.4 15.6 0.00 0.00 0.00 76 1005.4
20260505163653 46 306 10.4 13.9 0.00 0.00 0.00 75 1005.4
20260505163153 47 301 10.4 13.9 0.00 0.00 0.00 74 1005.4
20260505162653 47 277 10.4 13.9 0.00 0.00 0.00 73 1005.4
20260505162153 47 306 10.4 14.8 0.00 0.00 0.00 73 1005.4
20260505161653 48 302 9.6 14.8 0.00 0.00 0.00 73 1005.4
20260505161152 48 295 7.8 14.8 0.00 0.00 0.00 71 1005.1
20260505160654 48 0 7.8 13.0 0.00 0.00 0.00 72 1005.1
20260505160153 48 338 8.7 13.0 0.00 0.00 0.00 72 1005.1
20260505153152 49 307 12.2 18.2 0.00 0.00 0.00 70 1005.3
20260505152652 49 308 10.4 18.2 0.00 0.00 0.00 69 1004.8
20260505152152 51 304 8.7 14.8 0.00 0.00 0.00 67 1004.8
20260505151652 52 286 7.8 13.9 0.00 0.00 0.00 68 1004.8
20260505151144 52 313 8.7 16.5 0.00 0.00 0.00 69 1004.5
20260505150639 52 319 9.6 16.5 0.00 0.00 0.00 70 1004.5
20260505150129 51 309 10.4 15.6 0.00 0.00 0.00 71 1001.9
20260505140549 51 313 6.1 12.2 0.00 0.00 0.00 69 1003.2
20260505124952 46 347 11.3 15.6 0.00 0.00 0.00 75 1002.6
20260505124710 46 348 10.4 18.2 0.00 0.00 0.00 77 1002.6
20260505123952 46 346 9.6 18.2 0.00 0.00 0.00 78 1002.6
20260505123448 45 329 8.7 14.8 0.00 0.00 0.00 78 1002.6
20260505122936 45 347 7.8 15.6 0.00 0.00 0.00 79 1002.1
20260505122437 45 341 8.7 18.2 0.00 0.00 0.00 79 1002.1
20260505121936 45 339 8.7 18.2 0.00 0.00 0.00 79 1002.1
20260505121437 45 352 8.7 13.9 0.00 0.00 0.00 80 1001.8
20260505120937 45 327 8.7 13.9 0.00 0.00 0.00 80 1001.8
20260505120436 45 338 9.6 16.5 0.00 0.00 0.00 81 1001.8
20260505115937 45 312 9.6 16.5 0.00 0.00 0.00 80 1001.5
20260505115701 45 336 10.4 15.6 0.00 0.00 0.00 81 1001.5
20260505114936 45 321 11.3 15.6 0.00 0.00 0.00 80 1001.5
20260505114431 45 352 10.4 18.2 0.00 0.00 0.00 81 1001.3
20260505113920 45 344 9.6 18.2 0.00 0.00 0.00 82 1001.3
20260505113417 45 334 9.6 15.6 0.00 0.00 0.00 83 1001.3
20260505112916 45 343 9.6 16.5 0.00 0.00 0.00 84 1000.8
20260505112416 45 319 8.7 18.2 0.00 0.00 0.00 85 1000.8
20260505111917 46 326 8.7 18.2 0.00 0.00 0.00 85 1000.8
20260505111417 46 350 11.3 18.2 0.00 0.00 0.00 85 1000.5
20260505110917 46 333 8.7 18.2 0.00 0.00 0.00 86 1000.5
20260505110417 47 316 7.0 12.2 0.00 0.00 0.00 87 1000.5
20260505101637 51 311 13.0 19.1 0.00 0.01 0.00 88 998.9
20260505100907 52 299 10.4 15.6 0.00 0.01 0.00 87 998.9
20260505100357 52 303 8.7 13.0 0.00 0.01 0.00 87 998.9
20260505095856 53 295 7.8 13.0 0.00 0.01 0.00 86 998.9
20260505095357 53 248 7.8 13.9 0.00 0.01 0.00 86 998.9
20260505094857 54 272 8.7 13.9 0.00 0.01 0.00 86 998.9
20260505094356 54 295 8.7 13.9 0.00 0.01 0.00 86 998.4
20260505093856 55 261 9.6 13.9 0.00 0.01 0.00 85 998.4
20260505093356 55 282 9.6 13.9 0.00 0.01 0.00 85 998.4
20260505092857 56 244 8.7 13.9 0.00 0.01 0.00 84 997.9
20260505092357 57 286 9.6 14.8 0.00 0.01 0.00 84 997.9
20260505091853 57 252 11.3 14.8 0.00 0.01 0.00 83 997.9
20260505091353 58 247 10.4 14.8 0.00 0.01 0.00 82 997.7
20260505090853 58 223 9.6 14.8 0.00 0.01 0.00 82 997.7
20260505090352 58 265 9.6 14.8 0.00 0.01 0.00 82 997.7
20260505085853 58 236 7.8 14.8 0.00 0.01 0.00 83 997.8
20260505085353 58 246 7.8 11.3 0.00 0.01 0.00 82 997.8
20260505084853 58 238 8.7 11.3 0.00 0.01 0.00 82 997.8
20260505084613 58 234 8.7 11.3 0.00 0.01 0.00 82 997.3
20260505083853 58 215 7.8 11.3 0.00 0.01 0.00 82 997.3
20260505083347 58 238 8.7 11.3 0.00 0.01 0.00 82 997.3
20260505082835 58 210 7.8 11.3 0.00 0.01 0.00 82 997.4
20260505082322 58 210 7.8 10.4 0.00 0.01 0.00 82 997.4
20260505081813 59 205 8.7 11.3 0.00 0.01 0.00 82 997.4
20260505081313 59 215 8.7 13.0 0.00 0.01 0.00 81 997.5
20260505081038 59 215 9.6 13.0 0.00 0.01 0.00 81 997.5
20260505080308 59 198 9.6 13.0 0.00 0.01 0.00 81 997.5
20260505080041 59 210 9.6 13.0 0.00 0.01 0.00 81 997.6
20260505075308 59 210 9.6 13.0 0.00 0.01 0.00 81 997.6
20260505074808 59 210 9.6 12.2 0.00 0.01 0.00 81 997.6
20260505074308 59 205 9.6 12.2 0.00 0.01 0.00 81 997.8
20260505073806 59 210 9.6 12.2 0.00 0.01 0.00 81 997.8
20260505073306 59 205 9.6 13.9 0.00 0.01 0.00 81 997.8
20260505073035 59 201 10.4 14.8 0.00 0.01 0.00 81 997.9
20260505072525 59 222 10.4 14.8 0.00 0.01 0.00 80 997.9
20260505071804 59 220 11.3 17.4 0.00 0.01 0.00 80 997.9
20260505071304 59 201 11.3 17.4 0.00 0.01 0.00 80 998.0
20260505070757 59 205 10.4 13.9 0.00 0.01 0.00 80 998.0
20260505070256 59 233 10.4 13.9 0.00 0.01 0.00 80 998.0
20260505065750 60 205 10.4 13.9 0.00 0.01 0.00 80 998.3
20260505065240 60 205 11.3 13.9 0.00 0.01 0.00 80 998.3
20260505064739 60 196 12.2 16.5 0.00 0.01 0.00 80 998.3
20260505064233 60 199 11.3 16.5 0.00 0.01 0.00 80 998.4
20260505063726 60 194 10.4 15.6 0.00 0.01 0.00 80 998.4
20260505063216 60 210 11.3 15.6 0.00 0.01 0.00 79 998.4
20260505062709 60 196 12.2 15.6 0.00 0.01 0.00 79 998.4
20260505062204 60 198 12.2 17.4 0.00 0.01 0.00 79 998.4
20260505061703 60 210 13.0 18.2 0.00 0.01 0.00 79 998.4
20260505061156 60 205 13.9 20.9 0.00 0.01 0.00 79 998.4
20260505060650 60 205 15.6 20.9 0.00 0.01 0.00 78 998.4
20260505060138 60 205 15.6 20.0 0.00 0.01 0.00 78 998.5
20260505055533 60 199 15.6 21.7 0.00 0.01 0.00 78 998.5
20260505055253 60 205 15.6 21.7 0.00 0.01 0.00 78 998.5
20260505054521 60 219 15.6 21.7 0.00 0.01 0.00 79 998.4
20260505054241 60 196 16.5 21.7 0.00 0.01 0.00 78 998.4
20260505053515 60 205 15.6 21.7 0.00 0.01 0.00 79 998.4
20260505053006 60 196 14.8 20.9 0.00 0.01 0.00 79 998.4
20260505052454 60 191 13.9 20.0 0.00 0.01 0.00 79 998.4
20260505051953 60 205 13.0 19.1 0.00 0.01 0.00 79 998.4
20260505051441 60 191 14.8 18.2 0.00 0.01 0.00 79 998.4
20260505050941 60 210 13.9 20.0 0.00 0.01 0.00 79 998.4
20260505050435 60 199 13.9 20.0 0.00 0.01 0.00 79 998.4
20260505041349 59 192 15.6 22.6 0.00 0.01 0.00 79 998.4
20260505040847 59 180 16.5 22.6 0.00 0.01 0.00 79 998.4
20260505040347 60 189 16.5 22.6 0.00 0.01 0.00 79 998.4
20260505035845 60 186 17.4 23.5 0.00 0.01 0.01 79 998.4
20260505035345 60 196 17.4 23.5 0.00 0.01 0.01 79 998.4
20260505035110 60 197 17.4 27.8 0.00 0.01 0.01 79 998.4
20260505034344 60 205 17.4 27.8 0.00 0.01 0.01 78 998.5